Location: Newark
(56.9167°N, 48.7972°E)
Time: 03:17:21
(UTC+00:00)

Envisat - Visible Passes

Search period start: 22 August 2019 00:00
Search period end: 01 September 2019 00:00
Orbit: 764 x 766 km, 98.1° (Epoch: 21 August)

Date Brightness Start Highest point End Pass type
(mag) Time Alt. Az. Time Alt. Az. Time Alt. Az.
23 Aug 6.3 16:50:40 10° W 16:52:12 11° W 16:53:43 10° WNW visible
26 Aug 6.1 16:38:14 10° WSW 16:40:45 14° W 16:43:16 10° NW visible
29 Aug 5.9 16:26:10 10° WSW 16:29:19 16° W 16:32:29 10° NW visible
31 Aug 6.5 16:54:29 10° W 16:55:17 10° WNW 16:56:06 10° WNW visible
